EDT,Max TemperatureF,Mean TemperatureF,Min TemperatureF,Max Dew PointF,MeanDew PointF,Min DewpointF,Max Humidity, Mean Humidity, Min Humidity, Max Sea Level PressureIn, Mean Sea Level PressureIn, Min Sea Level PressureIn, Max VisibilityMiles, Mean VisibilityMiles, Min VisibilityMiles, Max Wind SpeedMPH, Mean Wind SpeedMPH, Max Gust SpeedMPH,PrecipitationIn, CloudCover, Events, WindDirDegrees
2013-3-1,40,35,31,27,25,23,78,67,54,29.92,29.90,29.87,10,10,5,13,6,16,0.00,8,Snow,334
2013-3-2,39,32,27,28,24,17,86,70,48,29.95,29.88,29.85,10,8,4,14,5,21,0.00,7,Snow,313
2013-3-3,34,28,23,16,13,10,70,54,39,30.01,29.96,29.92,10,10,7,15,8,24,0.00,2,Snow,316
2013-3-4,55,36,18,31,17,2,86,55,19,30.11,30.05,30.00,10,10,10,6,2,,0.00,1,,29
2013-3-5,50,40,30,49,35,23,99,85,58,30.05,29.86,29.66,10,7,2,20,2,31,0.67,7,Rain-Snow,290
2013-3-6,33,30,26,26,22,18,84,70,63,30.14,29.95,29.76,10,7,1,16,10,31,0.01,8,Snow,316
2013-3-7,54,38,21,29,24,18,92,68,31,30.24,30.18,30.12,10,10,10,12,3,16,0.00,0,,310
2013-3-8,60,40,21,29,18,0,93,62,9,30.31,30.25,30.18,10,10,5,10,1,16,0.00,1,,309
2013-3-9,67,44,22,30,23,20,91,55,17,30.32,30.25,30.17,10,10,10,8,1,,0.00,0,,121
2013-3-10,65,48,30,35,29,24,89,56,23,30.26,30.19,30.12,10,10,10,12,2,17,0.00,1,,170
2013-3-11,55,51,47,51,46,35,99,83,46,30.13,29.96,29.81,10,8,2,14,5,28,0.77,8,Rain,168
2013-3-12,56,44,32,49,32,18,99,65,24,30.06,29.92,29.80,10,10,4,16,6,21,0.04,3,Rain,309
2013-3-13,44,34,24,29,21,13,91,59,36,30.20,30.10,30.04,10,10,10,17,5,28,0.00,2,,318
2013-3-14,49,37,25,18,9,-3,61,38,12,30.27,30.22,30.17,10,10,10,12,6,20,0.00,1,,325
2013-3-15,68,46,25,39,29,16,88,55,23,30.20,30.08,29.96,10,10,10,23,3,34,0.00,3,,259
2013-3-16,73,57,41,43,39,36,85,53,29,29.96,29.91,29.83,10,10,10,18,4,29,0.00,4,,254
2013-3-17,70,56,43,45,40,35,87,60,27,29.99,29.94,29.89,10,10,10,15,3,18,0.00,1,,248
2013-3-18,52,46,41,46,44,38,98,86,74,29.99,29.93,29.83,10,8,0,15,2,20,0.41,7,Fog-Rain,132
2013-3-19,55,44,32,45,25,3,97,51,18,30.10,30.00,29.89,10,9,0,16,4,28,0.01,2,Fog,323
2013-3-20,53,41,29,30,15,-2,82,43,14,30.10,29.99,29.85,10,10,3,16,4,26,0.00,4,Rain-Snow,299
2013-3-21,37,30,23,24,7,2,67,38,24,29.93,29.87,29.84,10,10,10,16,8,29,0.00,1,,326
2013-3-22,45,32,19,32,18,9,85,59,28,30.03,29.98,29.93,10,10,10,6,0,,0.00,6,,74
2013-3-23,57,47,37,45,38,30,90,77,58,30.01,29.93,29.81,10,10,7,6,0,,0.05,8,Rain,234
2013-3-24,55,49,42,46,42,30,99,84,63,29.88,29.62,29.48,10,8,2,20,4,25,0.96,8,Rain,177
2013-3-25,40,34,29,28,21,17,75,62,53,29.94,29.74,29.59,10,9,2,17,10,30,0.17,8,Snow,298
2013-3-26,37,32,28,25,22,19,78,65,52,30.20,30.04,29.92,10,8,2,14,8,24,0.00,7,Snow,314
2013-3-27,47,37,27,22,18,12,79,50,25,30.26,30.22,30.18,10,10,10,14,5,26,0.00,2,,329
2013-3-28,53,36,19,26,16,5,90,56,15,30.30,30.25,30.20,10,10,10,16,3,24,0.00,0,,317
2013-3-29,47,34,20,38,27,17,96,77,30,30.35,30.30,30.23,10,9,4,8,1,,0.11,5,Rain,347
2013-3-30,63,50,37,46,38,31,97,75,31,30.23,30.14,30.03,10,8,2,12,1,,0.16,5,Rain,355
2013-3-31,61,54,47,53,49,45,100,88,57,30.05,29.92,29.87,10,8,3,8,1,17,0.33,8,Rain,181